Simultaneous Nadir Overpasses (SNOs) Predictions

Prediction of SNOs between AQUA and METOP-A Satellite Orbit:

Table of predicted SNOs for the next 14.0 days since TLE Epoch: 4/27/2017
Index Date (AQUA) Time (AQUA) Lat,Lon (AQUA) SZA (AQUA ) Date (METOP-A) Time (METOP-A) Lat,Lon (METOP-A) SZA (METOP-A ) Distance(km) Time Diff (sec)
1 04/27/2017 22:31:15 -73.96, 16.16 120.17 04/27/2017 22:31:49 -73.96, 16.22 120.19 2.08 34
2 04/30/2017 17:16:02 73.90, -84.90 58.90 04/30/2017 17:15:30 73.88, -84.87 58.89 2.03 32
3 04/30/2017 18:05:29 -73.97, 82.58 121.04 04/30/2017 18:06:10 -73.99, 82.70 121.03 3.91 41
4 05/03/2017 12:50:16 73.92, -18.50 58.08 05/03/2017 12:49:51 73.91, -18.40 58.07 3.14 25
5 05/03/2017 13:39:42 -73.94, 149.10 121.91 05/03/2017 13:40:32 -73.96, 149.05 121.89 3.18 50
6 05/06/2017 07:34:52 -73.45,-118.68 123.22 05/06/2017 07:33:43 -73.36,-120.60 123.23 61.87 69
7 05/06/2017 08:24:28 73.90, 47.99 57.25 05/06/2017 08:24:12 73.89, 47.94 57.24 2.05 16
8 05/06/2017 09:13:55 -73.97,-144.52 122.69 05/06/2017 09:14:52 -73.99,-144.49 122.68 2.56 57
9 05/09/2017 03:09:11 -73.75, -52.88 123.67 05/09/2017 03:07:58 -73.68, -53.47 123.71 19.77 73
10 05/09/2017 03:58:41 73.88, 114.46 56.47 05/09/2017 03:58:33 73.91, 114.39 56.49 3.36 8
11 05/09/2017 04:48:08 -73.95, -78.05 123.47 05/09/2017 04:49:14 -73.96, -78.15 123.47 3.09 66




NCC Satellite Simultaneous Nadir Overpasses (SNOs) Prediction Service
